[[{"header":{"parameterUnit":"m.s-1","parameterCategory":2,"la1":30.2991,"la2":30.254,"lo1":-89.0895,"lo2":-89.0444,"dy":0.0017,"dx":0.0017,"nx":28,"ny":28,"refTime":"2025-08-15T21:00:00:Z","depth":"0","parameterNumber":2,"parameterNumberName":"U-component_of_CURRENTS"},"data":[0,0,0,0,0,0,0,0,0,0,0,0,0,0,0,0,0,0,0,0,0,0,0,0,0,0,0,0,0,0,0,0,0,0,0,0,0,0,0,0,0,0,0,0,0,0,0,0,0,0,0,0,0,0,0,0,0,0,0.3761,0.3762,0,0.378,0.3779,0.3778,0.3729,0.3729,0.3728,0.3728,0.3708,0.3708,0.3708,0,0,0,0,0,0,0,0,0,0,0,0,0,0.3665,0.3666,0.3761,0.3762,0.3763,0.378,0.3779,0.3778,0.373,0.3729,0.3728,0.3728,0.3708,0.3708,0.3708,0,0,0,0,0,0,0,0,0,0,0,0,0,0.3688,0.3667,0.3761,0.3749,0.3749,0.378,0.3779,0.3778,0.373,0.3729,0.3728,0.3727,0.3708,0.3708,0.3708,0.3724,0,0,0.3708,0.3708,0,0,0,0,0,0,0,0,0.3686,0.369,0.3749,0.375,0.375,0.3761,0.3738,0.3762,0.373,0.3726,0.3728,0.3727,0.3729,0.3727,0.3718,0.3723,0.3723,0.3708,0.3708,0.3708,0.3708,0,0,0,0,0,0,0,0.3685,0.3689,0.3757,0.3751,0.3751,0.3737,0.3738,0.3742,0.3723,0.3726,0.3725,0.3744,0.3727,0.3718,0.3718,0.3722,0.3708,0.3708,0.3708,0.3708,0.3802,0.3804,0,0,0,0,0,0,0.3706,0.3688,0.3757,0.3759,0.3727,0.374,0.3741,0.3749,0.3724,0.3723,0.3745,0.3742,0.3719,0.3718,0.3717,0.3819,0.3708,0.3708,0.3708,0.3799,0.3802,0.3805,0,0,0,0,0,0,0.3704,0.3712,0.3757,0.3733,0.3739,0.3744,0.3753,0.375,0.3743,0.3741,0.3736,0.3742,0.3718,0.3717,0.3753,0.3815,0.3708,0.3708,0.3796,0.38,0.3804,0.3971,0,0,0,0,0,0,0.37,0.371,0.3718,0.3734,0.3741,0.3793,0.3755,0.3752,0.3762,0.3758,0.3738,0.3734,0.3717,0.3753,0.3753,0.3813,0.3708,0.3793,0.3798,0.3802,0.3962,0.398,0.3995,0,0,0,0,0,0.3697,0.3719,0.3717,0.3726,0.3753,0.3796,0.3798,0.3791,0.3763,0.3775,0.3774,0.3735,0.3782,0.3756,0.3754,0.3816,0.3791,0.3796,0.3802,0.3955,0.3977,0.3995,0,0,0,0,0,0,0.3683,0.3718,0.3716,0.3747,0.3779,0.3792,0.3811,0.3797,0.3801,0.38,0.377,0.3769,0.3826,0.3793,0.3764,0.3855,0.3779,0.3785,0.3896,0.3915,0.3932,0.3866,0.3708,0,0,0,0,0,0.3687,0.3715,0.3745,0.3776,0.3793,0.3798,0.3811,0.3814,0.3828,0.3826,0.3816,0.3816,0.3848,0.3858,0.3869,0.3917,0.3898,0.3953,0.3969,0.3984,0.3929,0.3988,0.4005,0.3823,0.3823,0.3823,0,0,0.3695,0.372,0.3736,0.3777,0.3795,0.3835,0.3801,0.3843,0.3874,0.3827,0.3861,0.3874,0.3873,0.3939,0.396,0.392,0.4043,0.3991,0.4004,0.3939,0.3996,0.4013,0.4029,0.3827,0.3827,0.3826,0,0,0.3735,0.3746,0.3781,0.3809,0.3858,0.3874,0.3889,0.3912,0.3918,0.3969,0.3953,0.3986,0.4023,0.4033,0.4045,0.4148,0.413,0.4175,0.4207,0.4269,0.4283,0.4296,0.437,0.4387,0.4183,0.4183,0.4183,0,0.3738,0.3776,0.3801,0.3843,0.3869,0.3893,0.3931,0.396,0.3993,0.4002,0.4002,0.4061,0.4059,0.4131,0.4168,0.4182,0.4221,0.4143,0.4291,0.4302,0.4312,0.4383,0.44,0.4192,0.4191,0.419,0.4189,0,0.3813,0.3826,0.3856,0.3912,0.3952,0.3993,0.4044,0.408,0.4097,0.4112,0.418,0.4199,0.4219,0.4257,0.4241,0.4323,0.4335,0.4314,0.4242,0.434,0.441,0.4425,0.4204,0.4201,0.4199,0.4196,0,0,0.3826,0.3888,0.3888,0.39,0.398,0.4014,0.4097,0.4151,0.4183,0.424,0.4285,0.4342,0.4334,0.4341,0.4354,0.4392,0.4526,0.4382,0.4382,0.4456,0.4696,0.4604,0.4611,0.4558,0.456,0.4562,0.4745,0,0.3856,0.3913,0.3951,0.4002,0.4026,0.4078,0.414,0.4204,0.4258,0.4318,0.4357,0.4415,0.4382,0.442,0.4456,0.45,0.456,0.4478,0.4582,0.4584,0.4491,0.4621,0.4387,0.4519,0.4758,0.4761,0.4762,0,0.389,0.392,0.3965,0.4004,0.4022,0.4069,0.4154,0.4215,0.4316,0.4359,0.4428,0.4474,0.4549,0.4512,0.4626,0.4592,0.4634,0.4664,0.4673,0.4508,0.4515,0.4443,0.4535,0.4425,0.4784,0.4782,0.4781,0,0.3855,0.3909,0.3933,0.3954,0.4034,0.4062,0.4111,0.4211,0.4264,0.4391,0.4455,0.4552,0.4603,0.4685,0.474,0.4715,0.4863,0.4848,0.4811,0.4807,0.4572,0.4543,0.4545,0.4919,0.4919,0.4918,0.4918,0,0.3845,0.3848,0.3908,0.3923,0.3958,0.4025,0.4087,0.4153,0.4265,0.4328,0.4458,0.4532,0.4643,0.4748,0.48,0.485,0.4928,0.4813,0.4841,0.4632,0.4607,0.4464,0.4434,0.4925,0.4924,0.4922,0.4921,0,0.3784,0.382,0.3846,0.3918,0.3937,0.3963,0.4062,0.4106,0.4223,0.4324,0.438,0.4539,0.4664,0.4786,0.4914,0.49,0.4844,0.4979,0.4729,0.472,0.4532,0.4519,0.436,0.4241,0.4974,0.4972,0.4971,0,0.3746,0.3761,0.3833,0.385,0.3874,0.3925,0.3958,0.4069,0.4119,0.4312,0.4346,0.4521,0.4598,0.4777,0.4795,0.4904,0.4796,0.4749,0.4614,0.4483,0.4493,0.4345,0.4245,0.4423,0.4418,0.4413,0.441,0,0.3703,0.3738,0.3782,0.3796,0.3821,0.3854,0.3903,0.3941,0.407,0.4153,0.4249,0.4341,0.4488,0.4465,0.4596,0.4628,0.4498,0.4656,0.4581,0.4092,0.3866,0.3776,0.4374,0.4369,0.4373,0.4376,0.4379,0.438,0.3675,0.3695,0.3747,0.3737,0.3754,0.374,0.3719,0.3784,0.3829,0.3882,0.4051,0.4076,0.4174,0.4292,0.4317,0.4179,0.4208,0.4059,0.4078,0.3958,0.3729,0.4235,0.4212,0.4214,0.4217,0.4219,0.4221,0,0.3632,0.3657,0.367,0.3647,0.3585,0.363,0.3635,0.3575,0.3542,0.3647,0.3686,0.3706,0.3708,0.3794,0.3747,0.3625,0.3467,0.3552,0.3286,0.3238,0.3745,0.3601,0.3366,0.3366,0.3366,0.3366,0.3367,0.3367,0.3618,0.3622,0.3608,0.3467,0.3426,0.3287,0.3252,0.3192,0.3204,0.3135,0.3105,0.3181,0.3364,0.3446,0.3324,0.3241,0.3027,0.2867,0.2939,0.3302,0.3349,0.3394,0.325,0.2946,0.2945,0.2231,0.2226,0.2222]},{"header":{"parameterUnit":"m.s-1","parameterCategory":2,"la1":30.2991,"la2":30.254,"lo1":-89.0895,"lo2":-89.0444,"dy":0.0017,"dx":0.0017,"nx":28,"ny":28,"refTime":"2025-08-15T21:00:00:Z","depth":"0","parameterNumber":3,"parameterNumberName":"V-component_of_CURRENTS"},"data":[0,0,0,0,0,0,0,0,0,0,0,0,0,0,0,0,0,0,0,0,0,0,0,0,0,0,0,0,0,0,0,0,0,0,0,0,0,0,0,0,0,0,0,0,0,0,0,0,0,0,0,0,0,0,0,0,0,0,-0.0126,-0.0126,0,-0.0167,-0.0167,-0.0167,-0.0192,-0.0192,-0.0193,-0.0193,-0.0337,-0.034,-0.0344,0,0,0,0,0,0,0,0,0,0,0,0,0,-0.0069,-0.0069,-0.0126,-0.0127,-0.0127,-0.0167,-0.0167,-0.0167,-0.0192,-0.0192,-0.0193,-0.0194,-0.0336,-0.034,-0.0344,0,0,0,0,0,0,0,0,0,0,0,0,0,-0.0097,-0.0069,-0.0126,-0.0147,-0.015,-0.0167,-0.0167,-0.0168,-0.0192,-0.0193,-0.0193,-0.0194,-0.0334,-0.0339,-0.0344,-0.0363,0,0,-0.036,-0.0362,0,0,0,0,0,0,0,0,-0.0095,-0.0098,-0.0143,-0.0146,-0.0149,-0.0178,-0.02,-0.0239,-0.0192,-0.0172,-0.0193,-0.0194,-0.0295,-0.0303,-0.0303,-0.0369,-0.0376,-0.036,-0.0364,-0.0366,-0.0367,0,0,0,0,0,0,0,-0.0093,-0.0097,-0.0138,-0.0144,-0.0147,-0.0155,-0.0159,-0.0207,-0.0228,-0.0174,-0.0177,-0.0187,-0.0297,-0.0298,-0.0307,-0.0378,-0.036,-0.0365,-0.0368,-0.037,-0.0463,-0.0463,0,0,0,0,0,0,-0.0094,-0.0095,-0.0137,-0.014,-0.0127,-0.0156,-0.016,-0.0165,-0.0226,-0.0236,-0.0186,-0.0188,-0.0289,-0.0301,-0.0313,-0.0321,-0.0366,-0.0371,-0.0373,-0.0464,-0.0463,-0.0463,0,0,0,0,0,0,-0.0093,-0.0098,-0.0136,-0.0122,-0.0127,-0.0157,-0.0161,-0.0166,-0.0169,-0.0235,-0.0246,-0.0185,-0.029,-0.0305,-0.0345,-0.0328,-0.0373,-0.0377,-0.0465,-0.0464,-0.0463,-0.0351,0,0,0,0,0,0,-0.0091,-0.0096,-0.0096,-0.0121,-0.0128,-0.0139,-0.0161,-0.0166,-0.0176,-0.0178,-0.0238,-0.0252,-0.0292,-0.0337,-0.035,-0.0336,-0.0381,-0.0465,-0.0464,-0.0463,-0.0355,-0.0346,-0.0338,0,0,0,0,0,-0.0089,-0.0082,-0.0095,-0.0101,-0.0128,-0.0138,-0.0141,-0.0163,-0.0175,-0.0168,-0.0207,-0.025,-0.0339,-0.034,-0.0356,-0.0343,-0.0466,-0.0465,-0.0463,-0.0359,-0.0348,-0.0339,0,0,0,0,0,0,-0.0056,-0.0085,-0.01,-0.0103,-0.0119,-0.0144,-0.0142,-0.0158,-0.0181,-0.0189,-0.0245,-0.0261,-0.0292,-0.0334,-0.0334,-0.0367,-0.0409,-0.0411,-0.0324,-0.0315,-0.0306,-0.0269,-0.0386,0,0,0,0,0,-0.005,-0.0054,-0.0082,-0.0085,-0.0089,-0.0115,-0.0122,-0.0138,-0.0165,-0.0175,-0.0214,-0.0259,-0.0297,-0.0318,-0.0363,-0.0381,-0.0386,-0.0384,-0.0375,-0.0367,-0.0348,-0.0331,-0.0318,-0.0458,-0.0458,-0.0458,0,0,-0.0038,-0.0057,-0.0059,-0.0079,-0.0091,-0.0083,-0.0119,-0.0128,-0.0118,-0.0191,-0.0189,-0.0239,-0.0298,-0.0315,-0.0332,-0.0347,-0.0329,-0.0366,-0.0359,-0.0343,-0.0328,-0.0314,-0.0301,-0.0457,-0.0458,-0.0458,0,0,-0.001,-0.0032,-0.002,-0.0029,-0.0051,-0.0064,-0.0064,-0.0086,-0.0091,-0.0104,-0.015,-0.0174,-0.024,-0.0256,-0.028,-0.0253,-0.0291,-0.0285,-0.0205,-0.0188,-0.0176,-0.0165,-0.014,-0.0128,-0.0273,-0.0273,-0.0272,0,0.0006,0.0013,-0.0017,-0.0006,-0.0003,-0.0049,-0.0024,-0.0035,-0.0066,-0.0057,-0.0094,-0.014,-0.02,-0.0192,-0.019,-0.023,-0.023,-0.0235,-0.0173,-0.0163,-0.0154,-0.0131,-0.0119,-0.0267,-0.0268,-0.0268,-0.0269,0,0.0042,0.0052,0.006,0.0062,0.0065,0.007,0.0054,0.0061,0.0042,0.0028,0.0028,-0.0031,-0.005,-0.008,-0.0135,-0.0099,-0.0124,-0.0167,-0.0189,-0.0132,-0.0113,-0.0102,-0.0259,-0.0261,-0.0263,-0.0264,0,0,0.0071,0.0085,0.009,0.0112,0.01,0.0112,0.0138,0.0156,0.0192,0.0153,0.0211,0.0135,0.0107,0.008,0.0022,0.0026,0.0078,-0.0042,-0.0044,0.0001,0.0124,0.0105,0.0114,0.0042,0.0045,0.0046,0.0117,0,0.0111,0.0157,0.0154,0.0208,0.0232,0.0221,0.0266,0.0274,0.0265,0.0306,0.0264,0.0274,0.0167,0.017,0.0156,0.0096,0.0109,0.0064,0.0046,0.0046,0.0036,0.0127,0.0093,0.0153,0.0127,0.0129,0.013,0,0.0151,0.0176,0.0237,0.0301,0.0317,0.0347,0.0415,0.0442,0.0474,0.0481,0.0483,0.0441,0.0446,0.0348,0.0309,0.0282,0.0215,0.0167,0.0168,0.0121,0.0047,0.0085,0.0172,0.0001,0.0146,0.0145,0.0143,0,0.0189,0.0243,0.0298,0.0309,0.0368,0.0414,0.0453,0.0493,0.0554,0.0594,0.0651,0.0621,0.0635,0.0558,0.0436,0.0379,0.0403,0.0316,0.0247,0.0245,0.02,0.0191,0.0136,0.031,0.031,0.0309,0.0309,0,0.023,0.0279,0.0321,0.0347,0.0445,0.0466,0.0575,0.061,0.0698,0.08,0.0742,0.0829,0.0683,0.0664,0.0531,0.0443,0.0483,0.0296,0.0274,0.0237,0.023,0.0062,-0.0042,0.0312,0.0311,0.0311,0.031,0,0.0266,0.0289,0.0356,0.0426,0.0461,0.0528,0.0665,0.0754,0.0815,0.0957,0.0991,0.1006,0.0983,0.0846,0.0738,0.0582,0.0395,0.0446,0.0417,0.039,0.0134,0.0037,-0.0027,-0.0103,0.039,0.039,0.039,0,0.0294,0.0325,0.0407,0.0473,0.0509,0.0615,0.0715,0.0804,0.0907,0.1078,0.1169,0.1193,0.1238,0.1085,0.0829,0.0645,0.0444,0.0454,0.0329,0.0153,0.0029,-0.0053,-0.0119,0.0319,0.0319,0.0318,0.0318,0,0.0345,0.0363,0.0421,0.0548,0.065,0.077,0.0908,0.1011,0.1145,0.1284,0.1458,0.1516,0.1372,0.1172,0.0888,0.0723,0.0315,0.0439,0.0266,-0.0006,-0.0106,-0.0201,0.0241,0.0315,0.0315,0.0315,0.0315,0.0316,0.0388,0.0437,0.0519,0.0645,0.0768,0.0916,0.1029,0.1192,0.1384,0.1604,0.1652,0.1778,0.1452,0.1072,0.0815,0.0302,0.0308,0.0109,0.0019,-0.0036,-0.0151,0.0293,0.0325,0.0325,0.0325,0.0326,0.0326,0,0.0452,0.0512,0.0628,0.0774,0.0918,0.0964,0.1167,0.1294,0.1519,0.1732,0.189,0.1827,0.1409,0.0962,0.0289,-0.0066,-0.0217,-0.0261,-0.0405,-0.0443,-0.0035,-0.0084,-0.015,-0.015,-0.015,-0.015,-0.015,-0.015,0.0497,0.0599,0.0652,0.0876,0.0988,0.1168,0.1277,0.1465,0.1643,0.1897,0.2005,0.2071,0.1745,0.0529,-0.0284,-0.0467,-0.0735,-0.0786,-0.0883,-0.0649,-0.0623,-0.0598,-0.0668,-0.0856,-0.0857,-0.1276,-0.1281,-0.1284]}],[{"header":{"parameterUnit":"m.s-1","parameterCategory":2,"la1":30.2991,"la2":30.254,"lo1":-89.0895,"lo2":-89.0444,"dy":0.0017,"dx":0.0017,"nx":28,"ny":28,"refTime":"2025-08-15T21:00:00:Z","depth":"2","parameterNumber":2,"parameterNumberName":"U-component_of_CURRENTS"},"data":[0,0,0,0,0,0,0,0,0,0,0,0,0,0,0,0,0,0,0,0,0,0,0,0,0,0,0,0,0,0,0,0,0,0,0,0,0,0,0,0,0,0,0,0,0,0,0,0,0,0,0,0,0,0,0,0,0,0,0.2557,0.2558,0,0.2616,0.2617,0.2617,0.2627,0.2627,0.2627,0.2627,0.2625,0.2625,0.2625,0,0,0,0,0,0,0,0,0,0,0,0,0,0.2494,0.2494,0.2557,0.2558,0.256,0.2616,0.2617,0.2617,0.2627,0.2627,0.2627,0.2627,0.2625,0.2625,0.2625,0,0,0,0,0,0,0,0,0,0,0,0,0,0.2529,0.2495,0.2557,0.2576,0.2578,0.2616,0.2617,0.2617,0.2627,0.2627,0.2627,0.2627,0.2625,0.2625,0.2625,0.2624,0,0,0.2625,0.2625,0,0,0,0,0,0,0,0,0.2526,0.253,0.2572,0.2575,0.2578,0.2619,0.2594,0.2618,0.2627,0.2602,0.2627,0.2627,0.2621,0.2622,0.2625,0.2624,0.2624,0.2625,0.2625,0.2625,0.2625,0,0,0,0,0,0,0,0.2524,0.2528,0.2575,0.2573,0.2577,0.2596,0.26,0.2599,0.2605,0.2604,0.2607,0.2623,0.2622,0.2625,0.2625,0.2624,0.2625,0.2625,0.2625,0.2625,0.2734,0.2737,0,0,0,0,0,0,0.2526,0.2525,0.2573,0.2577,0.2558,0.2597,0.2601,0.2601,0.2607,0.261,0.2622,0.2623,0.2626,0.2625,0.2625,0.2729,0.2625,0.2625,0.2625,0.2732,0.2735,0.2738,0,0,0,0,0,0,0.2524,0.2529,0.2571,0.2558,0.2566,0.2599,0.2598,0.2602,0.2623,0.2622,0.2623,0.2641,0.2626,0.2625,0.264,0.2725,0.2625,0.2625,0.2728,0.2733,0.2737,0.287,0,0,0,0,0,0,0.2522,0.2528,0.2539,0.2558,0.2567,0.2601,0.2599,0.2604,0.2635,0.2636,0.2638,0.2637,0.2626,0.2641,0.264,0.2723,0.2625,0.2724,0.273,0.2735,0.2862,0.2878,0.2893,0,0,0,0,0,0.2519,0.2538,0.2539,0.2546,0.2577,0.2602,0.2608,0.2628,0.2636,0.2646,0.2652,0.2638,0.2678,0.2642,0.2641,0.2726,0.2722,0.2728,0.2735,0.2855,0.2875,0.2892,0,0,0,0,0,0,0.2522,0.2542,0.2543,0.2568,0.2586,0.2606,0.2628,0.264,0.2653,0.2662,0.265,0.265,0.27,0.2688,0.2649,0.2776,0.2708,0.2715,0.28,0.2819,0.2834,0.2821,0.2624,0,0,0,0,0,0.2526,0.2543,0.256,0.2582,0.259,0.261,0.2628,0.2644,0.2658,0.2666,0.268,0.2701,0.2726,0.2748,0.2754,0.2811,0.2793,0.2874,0.2889,0.2902,0.2894,0.2937,0.2956,0.276,0.276,0.276,0,0,0.2534,0.2551,0.2559,0.2584,0.2597,0.2626,0.2619,0.2655,0.2703,0.2663,0.2732,0.2739,0.2746,0.2814,0.2841,0.2818,0.2955,0.2911,0.2922,0.2905,0.2946,0.2965,0.2982,0.2765,0.2764,0.2763,0,0,0.2567,0.2567,0.2595,0.2608,0.2642,0.2655,0.2669,0.2706,0.2743,0.2803,0.2798,0.2843,0.2892,0.2918,0.2936,0.3036,0.302,0.3069,0.3155,0.32,0.3216,0.3229,0.3251,0.3266,0.3095,0.3096,0.3096,0,0.2587,0.2605,0.2609,0.2639,0.2668,0.2671,0.2714,0.2747,0.2797,0.2847,0.2844,0.2935,0.2944,0.3022,0.3077,0.3073,0.3086,0.3085,0.3219,0.3232,0.3244,0.3262,0.3277,0.3103,0.3102,0.3101,0.3101,0,0.2641,0.265,0.2666,0.2702,0.2738,0.2765,0.2813,0.2878,0.2931,0.2967,0.3061,0.3069,0.3125,0.3165,0.3158,0.3267,0.3245,0.3219,0.3168,0.3271,0.3285,0.3297,0.3113,0.3111,0.3109,0.3107,0,0,0.2688,0.2702,0.2709,0.2719,0.2772,0.2801,0.2909,0.2995,0.3056,0.313,0.3218,0.3292,0.329,0.3307,0.331,0.3367,0.3481,0.3351,0.335,0.3366,0.358,0.3461,0.3462,0.3491,0.3494,0.3496,0.3562,0,0.2726,0.2771,0.2796,0.2844,0.2854,0.2919,0.3008,0.3097,0.3164,0.3244,0.3298,0.335,0.3344,0.3376,0.3437,0.3463,0.3517,0.3464,0.3481,0.3481,0.3358,0.3474,0.3204,0.3232,0.3574,0.3576,0.3577,0,0.2762,0.2783,0.2836,0.2886,0.2908,0.2964,0.3102,0.318,0.3297,0.3355,0.3426,0.3433,0.3533,0.3493,0.36,0.3575,0.359,0.3601,0.3604,0.3446,0.3385,0.3181,0.324,0.3597,0.3595,0.3594,0.3592,0,0.2748,0.2804,0.2845,0.2859,0.2935,0.3022,0.3097,0.3223,0.3306,0.3407,0.3466,0.3539,0.3593,0.364,0.3686,0.3662,0.378,0.3738,0.3633,0.3624,0.3368,0.3331,0.3794,0.3794,0.3794,0.3794,0.3793,0,0.274,0.2762,0.2837,0.2841,0.293,0.3011,0.3116,0.3215,0.3343,0.3412,0.3495,0.3545,0.364,0.3712,0.3727,0.3731,0.3818,0.3658,0.3642,0.3408,0.3376,0.3656,0.364,0.3796,0.3795,0.3795,0.3795,0,0.2705,0.2721,0.2763,0.2866,0.2901,0.2977,0.3126,0.3193,0.3326,0.3425,0.3469,0.3605,0.3677,0.3742,0.3817,0.3773,0.3785,0.3753,0.3464,0.3411,0.3585,0.3574,0.364,0.3636,0.3633,0.3631,0.3629,0,0.2683,0.2703,0.2792,0.2799,0.2844,0.2948,0.3014,0.3171,0.325,0.3432,0.3483,0.3597,0.3601,0.368,0.364,0.3629,0.3728,0.3373,0.3258,0.3595,0.3574,0.3568,0.3562,0.2985,0.2978,0.2972,0.2968,0,0.267,0.2713,0.2739,0.2781,0.2824,0.2881,0.2999,0.3042,0.3214,0.3274,0.3346,0.3359,0.3438,0.3292,0.3311,0.327,0.3353,0.3249,0.3706,0.3057,0.2981,0.2959,0.2974,0.2916,0.2921,0.2925,0.2927,0.2929,0.2659,0.2697,0.2731,0.2746,0.2781,0.2791,0.276,0.2864,0.2906,0.2949,0.3097,0.3028,0.3079,0.2924,0.2846,0.2811,0.302,0.2903,0.292,0.2944,0.2847,0.2769,0.2645,0.2649,0.2652,0.2655,0.2657,0,0.2608,0.2664,0.2696,0.2661,0.2616,0.2699,0.2724,0.2639,0.2566,0.2672,0.2671,0.2448,0.236,0.2436,0.2279,0.227,0.2243,0.2201,0.2152,0.2206,0.2254,0.212,0.1727,0.1724,0.1721,0.1718,0,0,0.2569,0.2561,0.2576,0.2467,0.246,0.2371,0.232,0.2208,0.2224,0.2103,0.2077,0.2247,0.235,0.2002,0.1964,0.182,0.1995,0.175,0.2502,0.2499,0.2542,0.267,0.2528,0,0,0,0,0]},{"header":{"parameterUnit":"m.s-1","parameterCategory":2,"la1":30.2991,"la2":30.254,"lo1":-89.0895,"lo2":-89.0444,"dy":0.0017,"dx":0.0017,"nx":28,"ny":28,"refTime":"2025-08-15T21:00:00:Z","depth":"2","parameterNumber":3,"parameterNumberName":"V-component_of_CURRENTS"},"data":[0,0,0,0,0,0,0,0,0,0,0,0,0,0,0,0,0,0,0,0,0,0,0,0,0,0,0,0,0,0,0,0,0,0,0,0,0,0,0,0,0,0,0,0,0,0,0,0,0,0,0,0,0,0,0,0,0,0,0.0129,0.0129,0,0.0105,0.0105,0.0104,0.0078,0.0078,0.0077,0.0077,0.0036,0.0035,0.0034,0,0,0,0,0,0,0,0,0,0,0,0,0,0.012,0.012,0.0129,0.0129,0.0129,0.0105,0.0105,0.0104,0.0078,0.0078,0.0077,0.0077,0.0036,0.0035,0.0034,0,0,0,0,0,0,0,0,0,0,0,0,0,0.0112,0.0121,0.0129,0.0113,0.0111,0.0105,0.0105,0.0104,0.0078,0.0078,0.0077,0.0077,0.0036,0.0035,0.0034,0.0037,0,0,0.003,0.003,0,0,0,0,0,0,0,0,0.0113,0.0113,0.0116,0.0114,0.0112,0.0094,0.0086,0.0081,0.0078,0.009,0.0077,0.0076,0.0055,0.0052,0.0048,0.0035,0.0033,0.003,0.003,0.0029,0.0029,0,0,0,0,0,0,0,0.0113,0.0113,0.0119,0.0116,0.0113,0.0096,0.0095,0.0085,0.0075,0.0089,0.0087,0.0086,0.0053,0.0049,0.0047,0.0032,0.003,0.0029,0.0028,0.0028,0.0012,0.0012,0,0,0,0,0,0,0.012,0.0114,0.012,0.0118,0.0112,0.0097,0.0095,0.01,0.0075,0.0071,0.0086,0.0084,0.0051,0.0048,0.0045,0.0063,0.0029,0.0028,0.0027,0.0012,0.0012,0.0012,0,0,0,0,0,0,0.012,0.0121,0.0121,0.0115,0.0114,0.0098,0.0103,0.01,0.0093,0.0073,0.0068,0.0083,0.0051,0.0047,0.0046,0.006,0.0027,0.0026,0.0011,0.0012,0.0012,0.0087,0,0,0,0,0,0,0.012,0.0121,0.0123,0.0116,0.0115,0.013,0.0104,0.01,0.0093,0.0091,0.0069,0.0064,0.005,0.0048,0.0045,0.0058,0.0025,0.0011,0.0011,0.0012,0.0085,0.009,0.0095,0,0,0,0,0,0.012,0.0133,0.0123,0.0123,0.0119,0.0131,0.0129,0.0114,0.0094,0.0103,0.0086,0.0065,0.0049,0.0048,0.0044,0.0057,0.0011,0.0011,0.0012,0.0082,0.0089,0.0095,0,0,0,0,0,0,0.0132,0.0131,0.012,0.0132,0.0135,0.0127,0.0133,0.0116,0.0108,0.0103,0.0076,0.0072,0.0076,0.0053,0.0053,0.0051,0.0023,0.0023,0.0078,0.0084,0.0089,0.0111,0.0024,0,0,0,0,0,0.0134,0.0141,0.0141,0.0149,0.0156,0.0141,0.014,0.0131,0.0125,0.012,0.0101,0.0081,0.0075,0.007,0.006,0.0062,0.0029,0.0063,0.0069,0.0074,0.0087,0.0046,0.005,0.0014,0.0014,0.0014,0,0,0.0144,0.014,0.0146,0.0151,0.0152,0.0177,0.014,0.0149,0.0167,0.0117,0.013,0.0103,0.008,0.0088,0.0086,0.007,0.0065,0.0074,0.0079,0.009,0.0048,0.0051,0.0054,0.0015,0.0015,0.0014,0,0,0.0176,0.0165,0.0189,0.0197,0.0201,0.0197,0.0201,0.0195,0.0193,0.0201,0.0169,0.0152,0.0139,0.0127,0.012,0.0146,0.0097,0.0133,0.0178,0.0139,0.0142,0.0144,0.0103,0.0101,0.0133,0.0133,0.0133,0,0.0184,0.0211,0.0198,0.0227,0.0241,0.0212,0.025,0.0248,0.0238,0.0243,0.0217,0.0188,0.0163,0.0173,0.018,0.0161,0.0126,0.016,0.0147,0.0149,0.0149,0.0107,0.0104,0.0137,0.0136,0.0136,0.0136,0,0.0242,0.0261,0.0279,0.0306,0.0322,0.0345,0.035,0.0356,0.0337,0.0327,0.0324,0.0282,0.0264,0.0246,0.0225,0.022,0.0189,0.0162,0.0135,0.0158,0.0111,0.0106,0.0142,0.0141,0.014,0.0139,0,0,0.0266,0.0311,0.0317,0.0346,0.0364,0.0389,0.0423,0.0447,0.0469,0.0434,0.0456,0.042,0.0376,0.0363,0.0317,0.0278,0.0248,0.0227,0.0223,0.0195,0.0156,0.013,0.0122,0.0214,0.0214,0.0214,0.0119,0,0.0314,0.0386,0.0394,0.0463,0.0504,0.0499,0.0544,0.0557,0.0545,0.0555,0.0499,0.0497,0.0428,0.0415,0.0366,0.0287,0.0239,0.0276,0.0131,0.0127,0.0108,0.0117,0.0141,0.0059,0.0114,0.0113,0.0113,0,0.0368,0.0409,0.0489,0.0554,0.0574,0.0608,0.0662,0.0698,0.0701,0.0695,0.0662,0.061,0.0562,0.0492,0.036,0.0384,0.028,0.0203,0.0197,0.0147,0.0093,0.0044,0.0048,0.0104,0.0105,0.0106,0.0106,0,0.0406,0.0473,0.0538,0.056,0.0631,0.0666,0.0705,0.0733,0.0787,0.0774,0.0793,0.0709,0.0684,0.0544,0.0385,0.0368,0.0231,0.0185,0.006,0.0057,0.0037,0.0033,0.0084,0.0084,0.0084,0.0084,0.0085,0,0.0455,0.0506,0.0557,0.0603,0.0687,0.0717,0.0805,0.0831,0.0881,0.095,0.0863,0.0882,0.0695,0.0592,0.0423,0.0238,0.0255,0.0075,0.0034,0.0063,0.0062,0.0071,0.0071,0.0081,0.0081,0.0082,0.0083,0,0.0491,0.0524,0.0613,0.0693,0.0712,0.0782,0.0889,0.0957,0.0988,0.1071,0.1077,0.1019,0.0881,0.0681,0.0461,0.0304,0.0117,0.0042,0.009,0.0056,-0.0045,-0.0041,-0.0111,-0.0113,-0.0114,-0.0115,-0.0116,0,0.0517,0.0564,0.0677,0.074,0.0776,0.0866,0.094,0.1007,0.1085,0.1156,0.1205,0.1109,0.1036,0.0712,0.0427,0.0129,0.01,-0.0038,-0.007,-0.003,-0.0064,-0.0057,-0.005,-0.0073,-0.0074,-0.0074,-0.0074,0,0.058,0.0622,0.0713,0.0819,0.0904,0.1009,0.111,0.1184,0.1271,0.1322,0.1366,0.131,0.1028,0.0738,0.0359,0.016,0.001,-0.0058,-0.0026,-0.0021,-0.0001,-0.0031,-0.0025,-0.0078,-0.0078,-0.0078,-0.0077,-0.0077,0.0638,0.0709,0.0816,0.0918,0.1021,0.1132,0.1207,0.1305,0.1411,0.1479,0.1455,0.1369,0.109,0.0581,0.0278,-0.0032,-0.0032,-0.0152,-0.0148,-0.0144,-0.0117,-0.0099,-0.019,-0.019,-0.019,-0.0191,-0.0191,0,0.0715,0.0787,0.0894,0.103,0.1133,0.1166,0.1309,0.1365,0.1453,0.1511,0.151,0.1227,0.0926,0.0613,0.0151,-0.0133,-0.0149,-0.0218,-0.0167,-0.0162,-0.0158,-0.0129,-0.0207,-0.0208,-0.0209,-0.0209,0,0,0.0765,0.088,0.0924,0.1085,0.1165,0.1276,0.1344,0.1413,0.1471,0.1478,0.1439,0.1366,0.1005,0.0672,0.0306,0.0053,0.0005,-0.0004,0.0036,0.0143,0.0151,-0.0096,-0.0043,0,0,0,0,0]}],[{"header":{"parameterUnit":"m.s-1","parameterCategory":2,"la1":30.2991,"la2":30.254,"lo1":-89.0895,"lo2":-89.0444,"dy":0.0017,"dx":0.0017,"nx":28,"ny":28,"refTime":"2025-08-15T21:00:00:Z","depth":"4","parameterNumber":2,"parameterNumberName":"U-component_of_CURRENTS"},"data":[0,0,0,0,0,0,0,0,0,0,0,0,0,0,0,0,0,0,0,0,0,0,0,0,0,0,0,0,0,0,0,0,0,0,0,0,0,0,0,0,0,0,0,0,0,0,0,0,0,0,0,0,0,0,0,0,0,0,0.1359,0.136,0,0.1417,0.1418,0.1418,0.1455,0.1455,0.1456,0.1456,0.1495,0.1495,0.1496,0,0,0,0,0,0,0,0,0,0,0,0,0,0.1303,0.1304,0.1359,0.136,0.1361,0.1417,0.1418,0.1418,0.1455,0.1455,0.1456,0.1456,0.1495,0.1495,0.1496,0,0,0,0,0,0,0,0,0,0,0,0,0,0.1338,0.1304,0.1359,0.1388,0.1392,0.1417,0.1418,0.1418,0.1454,0.1455,0.1456,0.1457,0.1494,0.1495,0.1496,0.1485,0,0,0.1499,0.1499,0,0,0,0,0,0,0,0,0.1336,0.1339,0.1383,0.1387,0.1391,0.1433,0.1413,0.1441,0.1454,0.1427,0.1456,0.1457,0.1474,0.1476,0.1481,0.1487,0.1489,0.1499,0.1499,0.1499,0.15,0,0,0,0,0,0,0,0.1333,0.1337,0.1378,0.1384,0.1389,0.1408,0.1413,0.1418,0.1442,0.1429,0.1433,0.1445,0.1475,0.148,0.1482,0.1489,0.1499,0.1499,0.15,0.15,0.1568,0.1569,0,0,0,0,0,0,0.1331,0.1335,0.1377,0.1381,0.1369,0.1408,0.1414,0.1415,0.1443,0.1449,0.1444,0.1447,0.1478,0.1481,0.1484,0.1545,0.1499,0.15,0.1501,0.1566,0.1568,0.1569,0,0,0,0,0,0,0.1329,0.1334,0.1374,0.1362,0.1369,0.1408,0.141,0.1416,0.1455,0.1455,0.146,0.1481,0.1479,0.1483,0.1521,0.1544,0.1501,0.1501,0.1565,0.1567,0.1569,0.1621,0,0,0,0,0,0,0.1327,0.1332,0.1348,0.1362,0.137,0.1404,0.141,0.1417,0.1461,0.1465,0.1487,0.149,0.148,0.152,0.1521,0.1544,0.1502,0.1563,0.1566,0.1568,0.1617,0.1624,0.163,0,0,0,0,0,0.1325,0.1335,0.1348,0.1354,0.1385,0.1405,0.1411,0.1439,0.1462,0.1478,0.1503,0.1491,0.1536,0.1522,0.1523,0.1547,0.1562,0.1565,0.1568,0.1614,0.1623,0.163,0,0,0,0,0,0,0.132,0.1341,0.1355,0.1372,0.1397,0.1413,0.1441,0.146,0.1493,0.1507,0.151,0.1514,0.1554,0.1546,0.153,0.1574,0.1546,0.155,0.1581,0.1589,0.1595,0.1641,0.1503,0,0,0,0,0,0.1326,0.1338,0.1362,0.1379,0.1398,0.1428,0.1448,0.1465,0.149,0.1507,0.1523,0.1543,0.1561,0.1574,0.1583,0.1609,0.1623,0.1625,0.1632,0.1637,0.1676,0.1723,0.1738,0.1579,0.1579,0.1579,0,0,0.1325,0.1344,0.1349,0.138,0.1406,0.1422,0.1442,0.1479,0.149,0.1505,0.154,0.1568,0.1575,0.1604,0.1621,0.1605,0.1682,0.1641,0.1645,0.1683,0.1728,0.1744,0.1758,0.1581,0.1581,0.158,0,0,0.1331,0.1354,0.1371,0.1389,0.1435,0.1443,0.1462,0.1497,0.1518,0.1554,0.1571,0.1635,0.164,0.1669,0.1678,0.1731,0.1716,0.1717,0.1786,0.183,0.1844,0.1857,0.1864,0.1877,0.1718,0.1718,0.1718,0,0.1342,0.1356,0.1381,0.1403,0.1419,0.1456,0.1472,0.149,0.1531,0.1575,0.1571,0.1674,0.1677,0.1749,0.1767,0.1749,0.1757,0.1752,0.184,0.1853,0.1865,0.1869,0.1883,0.1721,0.172,0.172,0.172,0,0.1336,0.1373,0.1389,0.1418,0.1433,0.1458,0.1478,0.1513,0.1551,0.1596,0.1695,0.1729,0.1809,0.1803,0.1801,0.1894,0.1864,0.1843,0.1822,0.1885,0.1884,0.1897,0.1725,0.1724,0.1723,0.1722,0,0,0.1321,0.1376,0.1385,0.1416,0.1446,0.1458,0.1484,0.1542,0.1611,0.1667,0.1766,0.1829,0.1912,0.1932,0.195,0.1991,0.2066,0.1961,0.1962,0.1971,0.2143,0.1982,0.198,0.2056,0.206,0.2062,0.2096,0,0.1327,0.1364,0.1379,0.1418,0.1451,0.1479,0.1503,0.1561,0.1635,0.1737,0.1827,0.1934,0.1935,0.2007,0.2052,0.2072,0.211,0.2058,0.2081,0.2082,0.1934,0.1994,0.2073,0.2106,0.2109,0.2111,0.2113,0,0.1318,0.1357,0.1386,0.1456,0.1471,0.1493,0.1574,0.1609,0.175,0.1826,0.1974,0.2048,0.2169,0.2142,0.2237,0.2203,0.2198,0.2193,0.2193,0.2046,0.1946,0.2039,0.2137,0.2135,0.2133,0.2132,0.213,0,0.1273,0.1364,0.1388,0.1402,0.1471,0.1509,0.1557,0.1671,0.1734,0.193,0.2014,0.217,0.2254,0.2297,0.2305,0.2287,0.2364,0.2326,0.2176,0.2162,0.2274,0.226,0.2397,0.2397,0.2397,0.2397,0.2397,0,0.1238,0.128,0.1398,0.1388,0.148,0.1531,0.1637,0.1712,0.1853,0.1949,0.2093,0.2175,0.23,0.2347,0.2344,0.2295,0.24,0.2215,0.2176,0.2287,0.2275,0.2281,0.2267,0.2398,0.2398,0.2398,0.2397,0,0.1161,0.1228,0.128,0.1383,0.1449,0.151,0.1663,0.1731,0.1882,0.2004,0.2071,0.2211,0.2281,0.2342,0.2403,0.232,0.2304,0.2254,0.2364,0.2326,0.2061,0.205,0.2107,0.2102,0.2098,0.2094,0.2091,0,0.1112,0.1128,0.1254,0.1318,0.1377,0.1516,0.159,0.1743,0.1813,0.1992,0.2017,0.2152,0.2229,0.2182,0.2258,0.2252,0.2217,0.2182,0.2145,0.2083,0.2041,0.2036,0.203,0.2084,0.2083,0.2082,0.2081,0,0.1014,0.1057,0.1084,0.1233,0.1333,0.1435,0.1562,0.161,0.1765,0.1906,0.1949,0.199,0.2048,0.2094,0.2103,0.2088,0.2198,0.2137,0.2146,0.2111,0.2056,0.2017,0.2016,0.2066,0.2068,0.2069,0.207,0,0.0949,0.096,0.1016,0.1151,0.1255,0.1318,0.1406,0.1491,0.1577,0.1771,0.1778,0.1901,0.2032,0.2006,0.2007,0.1995,0.1966,0.1885,0.1906,0.1924,0.1846,0.1749,0.1654,0,0,0,0,0,0.0902,0.0907,0.0963,0.1064,0.1136,0.1229,0.136,0.1444,0.1611,0.1593,0.169,0.174,0.1771,0.1827,0.1779,0.1914,0.1964,0.1845,0.188,0.1983,0.2001,0.1925,0,0,0,0,0,0,0.0875,0.0899,0.0919,0.0956,0.1023,0.11,0.1184,0.1293,0.1307,0.148,0.1512,0.1626,0.1688,0.1792,0.1748,0.1763,0.1743,0.1927,0.1921,0.1974,0.1989,0.2003,0.1931,0,0,0,0,0]},{"header":{"parameterUnit":"m.s-1","parameterCategory":2,"la1":30.2991,"la2":30.254,"lo1":-89.0895,"lo2":-89.0444,"dy":0.0017,"dx":0.0017,"nx":28,"ny":28,"refTime":"2025-08-15T21:00:00:Z","depth":"4","parameterNumber":3,"parameterNumberName":"V-component_of_CURRENTS"},"data":[0,0,0,0,0,0,0,0,0,0,0,0,0,0,0,0,0,0,0,0,0,0,0,0,0,0,0,0,0,0,0,0,0,0,0,0,0,0,0,0,0,0,0,0,0,0,0,0,0,0,0,0,0,0,0,0,0,0,0.0144,0.0144,0,0.0131,0.0131,0.0131,0.0124,0.0124,0.0124,0.0124,0.0123,0.0123,0.0123,0,0,0,0,0,0,0,0,0,0,0,0,0,0.0125,0.0126,0.0144,0.0144,0.0144,0.0131,0.0131,0.0131,0.0124,0.0124,0.0124,0.0124,0.0123,0.0123,0.0123,0,0,0,0,0,0,0,0,0,0,0,0,0,0.0125,0.0126,0.0145,0.0139,0.0139,0.0131,0.0131,0.0131,0.0124,0.0124,0.0124,0.0124,0.0123,0.0123,0.0123,0.0122,0,0,0.0123,0.0123,0,0,0,0,0,0,0,0,0.0125,0.0126,0.014,0.014,0.0139,0.013,0.0124,0.0129,0.0124,0.0129,0.0124,0.0124,0.0127,0.0126,0.0123,0.0122,0.0122,0.0123,0.0123,0.0123,0.0123,0,0,0,0,0,0,0,0.0125,0.0126,0.0139,0.014,0.0139,0.0125,0.0125,0.0125,0.0128,0.0129,0.0128,0.0127,0.0126,0.0123,0.0123,0.0122,0.0123,0.0123,0.0123,0.0123,0.0121,0.0121,0,0,0,0,0,0,0.0129,0.0126,0.0139,0.0139,0.0132,0.0125,0.0125,0.0132,0.0128,0.0127,0.0127,0.0127,0.0123,0.0123,0.0123,0.0135,0.0123,0.0123,0.0123,0.0121,0.0121,0.0121,0,0,0,0,0,0,0.0129,0.0131,0.014,0.0132,0.0132,0.0126,0.0133,0.0132,0.0131,0.0126,0.0126,0.0128,0.0123,0.0123,0.0128,0.0135,0.0123,0.0123,0.0121,0.0121,0.0121,0.0151,0,0,0,0,0,0,0.0129,0.0131,0.0135,0.0132,0.0133,0.0143,0.0133,0.0132,0.0131,0.013,0.0127,0.0127,0.0123,0.0128,0.0128,0.0134,0.0123,0.0121,0.0121,0.0121,0.015,0.0152,0.0154,0,0,0,0,0,0.0128,0.0138,0.0135,0.0137,0.0139,0.0144,0.0142,0.0137,0.0131,0.0135,0.0131,0.0127,0.0127,0.0128,0.0128,0.0135,0.0121,0.0121,0.0121,0.0149,0.0151,0.0154,0,0,0,0,0,0,0.0132,0.0138,0.0135,0.0146,0.0147,0.0143,0.0146,0.0139,0.0138,0.014,0.0131,0.0131,0.0136,0.0129,0.013,0.0132,0.0122,0.0122,0.0143,0.0145,0.0147,0.0158,0.0123,0,0,0,0,0,0.0134,0.0144,0.0145,0.0154,0.0156,0.015,0.0149,0.0148,0.0147,0.0146,0.0142,0.0136,0.0135,0.0136,0.0133,0.0138,0.0107,0.0139,0.0141,0.0143,0.0151,0.0099,0.0097,0.0121,0.0121,0.0121,0,0,0.014,0.0142,0.0149,0.0155,0.0155,0.0165,0.015,0.0157,0.0165,0.0147,0.0156,0.0145,0.0137,0.0142,0.0143,0.0139,0.0118,0.0143,0.0145,0.0152,0.0099,0.0097,0.0094,0.0121,0.0121,0.0121,0,0,0.0161,0.0158,0.0177,0.0177,0.018,0.0177,0.018,0.0179,0.018,0.0187,0.0172,0.0164,0.0165,0.0157,0.0154,0.0163,0.0129,0.0161,0.0182,0.0132,0.0129,0.0127,0.0077,0.007,0.0162,0.0162,0.0162,0,0.0166,0.0188,0.0182,0.0196,0.0199,0.0185,0.0203,0.0202,0.0201,0.0204,0.0196,0.0183,0.0173,0.0173,0.0176,0.0168,0.0132,0.0176,0.0134,0.0131,0.0128,0.0077,0.0069,0.0164,0.0164,0.0163,0.0163,0,0.02,0.0214,0.0224,0.0238,0.024,0.0252,0.025,0.0254,0.0248,0.0243,0.0242,0.0221,0.0214,0.0204,0.0197,0.0175,0.0154,0.0141,0.0129,0.0127,0.0074,0.0065,0.0166,0.0165,0.0165,0.0165,0,0,0.0219,0.0245,0.0248,0.0264,0.0263,0.0274,0.0285,0.0293,0.0306,0.029,0.0297,0.0279,0.0261,0.0256,0.0234,0.0191,0.0134,0.0162,0.0159,0.0114,0.0018,0.0022,0.0012,0.011,0.0108,0.0108,-0.0013,0,0.0246,0.0292,0.0289,0.0323,0.0346,0.0331,0.0348,0.0351,0.0344,0.0345,0.0312,0.0315,0.0284,0.0284,0.0234,0.0164,0.0112,0.0168,0.0026,0.0022,0.0027,0.0003,0.0104,-0.002,-0.0022,-0.0024,-0.0025,0,0.0278,0.0306,0.0353,0.0382,0.039,0.0404,0.0423,0.044,0.043,0.0426,0.0405,0.0375,0.0326,0.0297,0.0164,0.02,0.0115,0.005,0.0043,0.0034,0.0009,-0.0017,-0.0042,-0.0041,-0.004,-0.0039,-0.0037,0,0.0307,0.0346,0.0389,0.0397,0.0427,0.0445,0.0463,0.0468,0.0491,0.048,0.048,0.0415,0.0387,0.0272,0.0142,0.0149,-0.0019,-0.0029,-0.011,-0.0111,-0.0091,-0.0087,-0.0133,-0.0133,-0.0132,-0.0132,-0.0132,0,0.0332,0.0364,0.0411,0.0434,0.0494,0.0495,0.055,0.0557,0.0565,0.0589,0.0532,0.0515,0.0377,0.0267,0.0144,-0.0011,-0.0023,-0.011,-0.0142,-0.0077,-0.007,-0.0099,-0.0093,-0.0137,-0.0136,-0.0135,-0.0134,0,0.0351,0.038,0.0441,0.0492,0.0514,0.0564,0.0622,0.0651,0.0654,0.0676,0.0674,0.0581,0.0443,0.0289,0.0095,0.0,-0.0152,-0.0206,-0.0128,-0.0153,-0.0213,-0.0204,-0.0306,-0.0307,-0.0308,-0.0308,-0.0309,0,0.0362,0.0398,0.0494,0.0545,0.0571,0.0643,0.0687,0.0708,0.0731,0.071,0.0709,0.0593,0.0514,0.0243,0.0077,-0.016,-0.0189,-0.027,-0.0236,-0.021,-0.0231,-0.0221,-0.0212,-0.031,-0.031,-0.031,-0.0311,0,0.0385,0.0428,0.0486,0.0596,0.066,0.0727,0.0782,0.0803,0.0813,0.0812,0.074,0.0608,0.0448,0.0246,0.0063,-0.0108,-0.0215,-0.0278,-0.0277,-0.0247,-0.0216,-0.0234,-0.0224,-0.0313,-0.0313,-0.0312,-0.0312,0,0.0408,0.0461,0.0549,0.064,0.072,0.077,0.0808,0.0816,0.0836,0.0803,0.0773,0.0609,0.0516,0.027,0.0095,-0.0064,-0.01,-0.0146,-0.0153,-0.0152,-0.0066,-0.0002,-0.0065,0,0,0,0,0,0.0428,0.049,0.0579,0.0673,0.0743,0.0786,0.0842,0.0862,0.0868,0.0829,0.0806,0.066,0.0412,0.0296,0.0138,0.0072,-0.0136,-0.0119,-0.0194,-0.0327,-0.0324,-0.0247,0,0,0,0,0,0,0.0447,0.0533,0.0581,0.0667,0.0724,0.079,0.0828,0.0837,0.0814,0.0804,0.0673,0.0621,0.0376,0.0504,0.0134,0.0085,0.0015,-0.0232,-0.0235,-0.0329,-0.0326,-0.0324,-0.0244,0,0,0,0,0]}]]